Regional Weather Roundup
Issued by NWS

Home | Current Version | Previous Version | Graphics & Text | Print | Product List | Glossary On
Versions: 1 2 3 4 5 6 7 8 9 10 11 12 13 14 15 16 17 18 19 20 21 22 23 24 25 26 27 28 29 30 31 32 33 34 35 36 37 38 39 40 41 42 43 44 45 46 47 48 49 50
000
ASUS45 KTFX 251110
RWRMT
MONTANA REGIONAL WEATHER ROUNDUP
NATIONAL WEATHER SERVICE GREAT FALLS MT
500 AM MDT MON MAY 25 2015

NOTE: "FAIR" INDICATES FEW OR NO CLOUDS BELOW 12000 FEET WITH NO
SIGNIFICANT WEATHER AND/OR OBSTRUCTIONS TO VISIBILITY.

MTZ001>007-043-251200-
WEST OF THE DIVIDE

CITY           SKY/WX    TMP DP  RH WIND       PRES   REMARKS
KALISPELL      SUNNY     41  37  86 VRB3      29.88S
MISSOULA       CLEAR     44  38  79 CALM      29.92S
BUTTE          CLEAR     36  34  92 E5        29.98S
MULLAN PASS    MOCLDY    47  37  68 S5        29.94F
DEER LODGE       N/A     37  36  93 W5        29.99S
EUREKA           N/A     48  36  61 CALM      29.87S
HAMILTON         N/A     46  37  71 S6        29.92S
LIBBY            N/A     52  43  71 E3        29.87F
RONAN            N/A     43  38  82 CALM      29.93F
THOMPSON FALLS   N/A     45  42  89 CALM      29.93S
$$

MTZ008-052>055-251200-
SOUTHWEST MONTANA

CITY           SKY/WX    TMP DP  RH WIND       PRES   REMARKS
BOZEMAN        PTCLDY    38  37  97 SE6       29.96S
DILLON         CLEAR     42  38  85 S7        29.96F
W YELLOWSTONE  CLOUDY    39  39 100 CALM      29.99S
THREE FORKS      N/A     41  22  47 CALM      29.96S VSB 0
TWIN BRIDGES     N/A     39  33  79 E3        29.96S
$$

MTZ009-010-012-014-046-048-049-054-251200-
EAST SLOPES AND CENTRAL MONTANA

CITY           SKY/WX    TMP DP  RH WIND       PRES   REMARKS
CUT BANK       CLEAR     38  36  92 NW5       29.93S
GREAT FALLS    CLEAR     45  41  86 CALM      29.93S
MALMSTROM AFB  MOCLDY    42  40  94 SE5       29.93S
HELENA         CLEAR     45  41  86 CALM      29.95R
CONRAD           N/A     37  37 100 CALM      29.95F
$$

MTZ011-013-016-021-045-047-050-051-251200-
NORTH CENTRAL MONTANA

CITY           SKY/WX    TMP DP  RH WIND       PRES   REMARKS
HAVRE          CLEAR     42  38  85 CALM      29.91S
LEWISTOWN      CLOUDY    47  43  86 SE3       29.94F
N BAR RANCH    CLOUDY    46  43  87 W6        29.96S
CHINOOK          N/A     43  41  93 NW3       29.91S
FORT BENTON      N/A     46  43  87 SW3       29.93
$$

MTZ017>020-022>027-061-062-251200-
NORTHEAST MONTANA

CITY           SKY/WX    TMP DP  RH WIND       PRES   REMARKS
GLASGOW        CLEAR     51  43  74 CALM      29.89S
JORDAN           N/A     44  42  93 W5        29.90F
SIDNEY         PTCLDY    46  43  87 CALM      29.89S
WOLF POINT     PTCLDY    43  41  93 CALM      29.90R
MALTA            N/A     42  36  79 CALM      29.87F
POPLAR           N/A     46  45  93 CALM      29.90R
SCOBEY           N/A     40  30  67 E2        29.89F
$$

MTZ028>42-056>058-251200-
SOUTHCENTRAL AND SOUTHEAST MONTANA

CITY           SKY/WX    TMP DP  RH WIND       PRES   REMARKS
BAKER          CLOUDY    52  51  97 N8        29.88S
BILLINGS       LGT RAIN  51  46  83 CALM      29.92F
LIVINGSTON     CLEAR     39  36  89 NW3       29.96S
MILES CITY     CLOUDY    51  49  92 NW7       29.89F
BIG TIMBER       N/A     43  41  93 CALM      29.96S
EKALAKA          N/A     50  48  92 N2        29.88S
FORSYTH          N/A     54  54 100 CALM      29.90S
LAUREL           N/A     50  42  73 CALM      29.92S
ROUNDUP          N/A     48  44  86 CALM      29.85S
$$

REGIONAL REPORTS...DAKOTAS

CITY           SKY/WX    TMP DP  RH WIND       PRES   REMARKS
WILLISTON      PTCLDY    45  41  86 CALM      29.88S
MINOT          CLOUDY    52  47  83 CALM      29.85S
DICKINSON      CLOUDY    53  49  86 E5        29.85S
BEACH          CLOUDY    50  50 100 N6        29.89F
CROSBY         FAIR      45  45 100 CALM      29.90S
WATFORD CITY   PTSUNNY   46  45  93 CALM      29.87S
BISMARCK       LGT RAIN  56  55  97 N3        29.84S
GRAND FORKS    CLOUDY    55  51  86 S3        29.80F
FARGO          LGT RAIN  58  56  93 N9        29.78F
BUFFALO SD       N/A     52  50  93 N8        29.78S
RAPID CITY     CLOUDY    50  49  96 N3        29.83R
$$

REGIONAL REPORTS...WYOMING/IDAHO/WASHINGTON

CITY           SKY/WX    TMP DP  RH WIND       PRES   REMARKS
GILLETTE       CLOUDY    49  48  97 N7        29.88S FOG
SHERIDAN       LGT RAIN  48  47  96 CALM      29.92S
BUFFALO WY     CLOUDY    45  44  97 NW9       29.92F
CODY           CLOUDY    48  41  76 CALM      29.95S
YELLOWSTONE LA   N/A     30  28  92 CALM      30.03S
IDAHO FALLS    FOG       42  41  96 SW3       29.94R VSB 1/2
SALMON         CLEAR     43  39  87 CALM      29.94S
BOISE          CLEAR     55  46  71 SE7       29.86F
SPOKANE        TSTM      54  52  93 N14       29.86R
$$

REGIONAL REPORTS...ALBERTA

CITY           SKY/WX    TMP DP  RH WIND       PRES   REMARKS
EDMONTON       CLEAR     45  37  76 SW5       29.86F
CALGARY        PTCLDY    48  37  66 CALM      29.89S
LETHBRIDGE     CLEAR     41  37  87 S8        29.90S
MEDICINE HAT   CLEAR     43  39  87 SW5       29.90S
$$

REGIONAL REPORTS...SASKATCHEWAN

CITY           SKY/WX    TMP DP  RH WIND       PRES   REMARKS
SWIFT CURRENT  PTCLDY    54  36  50 SW3       29.90S
REGINA         PTCLDY    48  39  71 E3        29.88S
SASKATOON      PTCLDY    52  41  66 NE2       29.87F
$$



USA.gov is the U.S. government's official web portal to all federal, state and local government web resources and services.